| time (UTC) | temp C | wind direction | speed KPH | gust KPH | rain 1hr cm | rain 24hr cm | rain mn cm | humidity % | barometer mb |
| 20260509013137 | 18 | 258 | 3.2 | 4.8 | 0.00 | 0.00 | 0.00 | 28 | 1001.8 |
| 20260509012634 | 18 | 248 | 12.9 | 22.5 | 0.00 | 0.00 | 0.00 | 28 | 1001.6 |
| 20260509012131 | 19 | 137 | 3.2 | 4.8 | 0.00 | 0.00 | 0.00 | 28 | 1001.8 |
| 20260509011629 | 19 | 69 | 4.8 | 4.8 | 0.00 | 0.00 | 0.00 | 27 | 1001.7 |
| 20260509011126 | 19 | 326 | 3.2 | 3.2 | 0.00 | 0.00 | 0.00 | 28 | 1001.6 |
| 20260509010623 | 20 | 176 | 3.2 | 4.8 | 0.00 | 0.00 | 0.00 | 27 | 1001.7 |
| 20260509010119 | 20 | 191 | 12.9 | 19.3 | 0.00 | 0.00 | 0.00 | 27 | 1001.7 |
| 20260509005618 | 20 | 155 | 1.6 | 3.2 | 0.00 | 0.00 | 0.00 | 28 | 1001.4 |
| 20260509005113 | 20 | 175 | 1.6 | 3.2 | 0.00 | 0.00 | 0.00 | 27 | 1001.4 |
| 20260509004609 | 20 | 264 | 3.2 | 8.0 | 0.00 | 0.00 | 0.00 | 26 | 1001.5 |
| 20260509004107 | 20 | 294 | 3.2 | 4.8 | 0.00 | 0.00 | 0.00 | 27 | 1001.5 |
| 20260509003605 | 20 | 205 | 3.2 | 3.2 | 0.00 | 0.00 | 0.00 | 26 | 1001.4 |
| 20260509003102 | 20 | 141 | 4.8 | 8.0 | 0.00 | 0.00 | 0.00 | 27 | 1001.3 |
| 20260509002559 | 21 | 164 | 3.2 | 4.8 | 0.00 | 0.00 | 0.00 | 26 | 1001.4 |
| 20260509002057 | 21 | 252 | 9.7 | 14.5 | 0.00 | 0.00 | 0.00 | 26 | 1001.5 |
| 20260509001554 | 21 | 176 | 4.8 | 8.0 | 0.00 | 0.00 | 0.00 | 26 | 1001.3 |
| 20260509001049 | 21 | 20 | 9.7 | 14.5 | 0.00 | 0.00 | 0.00 | 27 | 1001.6 |
| 20260509000548 | 21 | 51 | 3.2 | 3.2 | 0.00 | 0.00 | 0.00 | 27 | 1001.4 |
| 20260509000044 | 21 | 331 | 22.5 | 30.6 | 0.00 | 0.00 | 0.00 | 26 | 1001.4 |
| 20260508235542 | 21 | 161 | 3.2 | 8.0 | 0.00 | 0.00 | 0.00 | 27 | 1001.6 |
| 20260508235038 | 21 | 22 | 4.8 | 14.5 | 0.00 | 0.00 | 0.00 | 27 | 1001.4 |
| 20260508234535 | 21 | 176 | 4.8 | 8.0 | 0.00 | 0.00 | 0.00 | 27 | 1001.5 |
| 20260508234032 | 21 | 192 | 3.2 | 4.8 | 0.00 | 0.00 | 0.00 | 27 | 1001.7 |
| 20260508233532 | 21 | 209 | 4.8 | 4.8 | 0.00 | 0.00 | 0.00 | 27 | 1001.5 |
| 20260508233028 | 21 | 28 | 4.8 | 4.8 | 0.00 | 0.00 | 0.00 | 27 | 1001.3 |
| 20260508232525 | 21 | 210 | 3.2 | 3.2 | 0.00 | 0.00 | 0.00 | 28 | 1001.5 |
| 20260508232022 | 21 | 131 | 3.2 | 3.2 | 0.00 | 0.00 | 0.00 | 27 | 1001.5 |
| 20260508231520 | 21 | 161 | 6.4 | 8.0 | 0.00 | 0.00 | 0.00 | 27 | 1001.8 |
| 20260508231017 | 22 | 171 | 3.2 | 4.8 | 0.00 | 0.00 | 0.00 | 27 | 1001.4 |
| 20260508230513 | 22 | 144 | 11.3 | 19.3 | 0.00 | 0.00 | 0.00 | 26 | 1001.6 |
| 20260508230010 | 22 | 277 | 4.8 | 8.0 | 0.00 | 0.00 | 0.00 | 26 | 1001.5 |
| 20260508225508 | 22 | 177 | 0.0 | 0.0 | 0.00 | 0.00 | 0.00 | 27 | 1001.6 |
| 20260508225004 | 22 | 168 | 1.6 | 3.2 | 0.00 | 0.00 | 0.00 | 28 | 1001.5 |
| 20260508224502 | 22 | 14 | 8.0 | 14.5 | 0.00 | 0.00 | 0.00 | 26 | 1001.6 |
| 20260508223959 | 22 | 164 | 3.2 | 4.8 | 0.00 | 0.00 | 0.00 | 27 | 1001.7 |
| 20260508223457 | 22 | 188 | 1.6 | 3.2 | 0.00 | 0.00 | 0.00 | 26 | 1001.7 |
| 20260508222954 | 22 | 301 | 8.0 | 8.0 | 0.00 | 0.00 | 0.00 | 25 | 1001.5 |
| 20260508222451 | 22 | 153 | 1.6 | 3.2 | 0.00 | 0.00 | 0.00 | 27 | 1001.8 |
| 20260508221947 | 23 | 302 | 8.0 | 11.3 | 0.00 | 0.00 | 0.00 | 25 | 1001.7 |
| 20260508221443 | 23 | 170 | 1.6 | 3.2 | 0.00 | 0.00 | 0.00 | 26 | 1001.8 |
| 20260508220940 | 23 | 217 | 3.2 | 4.8 | 0.00 | 0.00 | 0.00 | 26 | 1001.8 |
| 20260508220437 | 23 | 188 | 3.2 | 3.2 | 0.00 | 0.00 | 0.00 | 26 | 1002.1 |
| 20260508215933 | 23 | 322 | 3.2 | 4.8 | 0.00 | 0.00 | 0.00 | 26 | 1001.8 |
| 20260508215430 | 22 | 165 | 0.0 | 3.2 | 0.00 | 0.00 | 0.00 | 26 | 1001.9 |
| 20260508214926 | 22 | 304 | 3.2 | 4.8 | 0.00 | 0.00 | 0.00 | 26 | 1002.0 |
| 20260508214424 | 22 | 160 | 0.0 | 0.0 | 0.00 | 0.00 | 0.00 | 29 | 1002.1 |
| 20260508213920 | 22 | 15 | 6.4 | 8.0 | 0.00 | 0.00 | 0.00 | 27 | 1002.1 |
| 20260508213418 | 22 | 156 | 3.2 | 3.2 | 0.00 | 0.00 | 0.00 | 27 | 1002.2 |
| 20260508212913 | 22 | 19 | 3.2 | 4.8 | 0.00 | 0.00 | 0.00 | 26 | 1002.1 |
| 20260508212410 | 23 | 152 | 4.8 | 4.8 | 0.00 | 0.00 | 0.00 | 26 | 1002.2 |
| 20260508211906 | 22 | 0 | 3.2 | 4.8 | 0.00 | 0.00 | 0.00 | 27 | 1002.4 |
| 20260508211401 | 21 | 256 | 3.2 | 4.8 | 0.00 | 0.00 | 0.00 | 27 | 1002.3 |
| 20260508210859 | 21 | 134 | 4.8 | 8.0 | 0.00 | 0.00 | 0.00 | 26 | 1002.4 |
| 20260508210355 | 22 | 180 | 3.2 | 4.8 | 0.00 | 0.00 | 0.00 | 26 | 1002.6 |
| 20260508205852 | 22 | 3 | 6.4 | 8.0 | 0.00 | 0.00 | 0.00 | 25 | 1002.7 |
| 20260508205349 | 23 | 154 | 4.8 | 4.8 | 0.00 | 0.00 | 0.00 | 25 | 1002.6 |
| 20260508204845 | 23 | 58 | 4.8 | 8.0 | 0.00 | 0.00 | 0.00 | 26 | 1002.6 |
| 20260508204342 | 22 | 150 | 0.0 | 3.2 | 0.00 | 0.00 | 0.00 | 26 | 1002.7 |
| 20260508203838 | 23 | 193 | 3.2 | 4.8 | 0.00 | 0.00 | 0.00 | 26 | 1003.0 |
| 20260508203334 | 22 | 321 | 12.9 | 19.3 | 0.00 | 0.00 | 0.00 | 25 | 1003.3 |
| 20260508202830 | 22 | 11 | 6.4 | 8.0 | 0.00 | 0.00 | 0.00 | 26 | 1003.0 |
| 20260508202328 | 21 | 203 | 8.0 | 11.3 | 0.00 | 0.00 | 0.00 | 27 | 1003.3 |
| 20260508201825 | 21 | 37 | 8.0 | 11.3 | 0.00 | 0.00 | 0.00 | 27 | 1003.4 |
| 20260508201322 | 21 | 184 | 3.2 | 4.8 | 0.00 | 0.00 | 0.00 | 27 | 1003.3 |
| 20260508200813 | 21 | 313 | 6.4 | 11.3 | 0.00 | 0.00 | 0.00 | 27 | 1003.5 |
| 20260508200309 | 22 | 259 | 6.4 | 14.5 | 0.00 | 0.00 | 0.00 | 27 | 1003.4 |
| 20260508195805 | 22 | 196 | 4.8 | 4.8 | 0.00 | 0.00 | 0.00 | 25 | 1003.6 |
| 20260508195305 | 21 | 255 | 3.2 | 4.8 | 0.00 | 0.00 | 0.00 | 25 | 1003.6 |
| 20260508194758 | 21 | 260 | 4.8 | 8.0 | 0.00 | 0.00 | 0.00 | 26 | 1003.8 |
| 20260508194256 | 21 | 164 | 3.2 | 4.8 | 0.00 | 0.00 | 0.00 | 25 | 1003.9 |
| 20260508193753 | 21 | 122 | 6.4 | 8.0 | 0.00 | 0.00 | 0.00 | 27 | 1003.8 |
| 20260508193249 | 21 | 358 | 9.7 | 11.3 | 0.00 | 0.00 | 0.00 | 26 | 1004.0 |
| 20260508192745 | 21 | 204 | 3.2 | 3.2 | 0.00 | 0.00 | 0.00 | 26 | 1003.8 |
| 20260508192243 | 21 | 354 | 12.9 | 16.1 | 0.00 | 0.00 | 0.00 | 24 | 1003.9 |
| 20260508191740 | 22 | 187 | 6.4 | 11.3 | 0.00 | 0.00 | 0.00 | 24 | 1004.0 |
| 20260508191237 | 21 | 14 | 8.0 | 11.3 | 0.00 | 0.00 | 0.00 | 25 | 1004.1 |
| 20260508190734 | 21 | 265 | 4.8 | 8.0 | 0.00 | 0.00 | 0.00 | 25 | 1004.3 |
| 20260508190230 | 21 | 218 | 4.8 | 4.8 | 0.00 | 0.00 | 0.00 | 25 | 1004.3 |
| 20260508185727 | 21 | 46 | 8.0 | 11.3 | 0.00 | 0.00 | 0.00 | 24 | 1004.3 |
| 20260508185225 | 22 | 356 | 6.4 | 8.0 | 0.00 | 0.00 | 0.00 | 26 | 1004.1 |
| 20260508184721 | 22 | 20 | 12.9 | 19.3 | 0.00 | 0.00 | 0.00 | 25 | 1004.3 |
| 20260508184219 | 23 | 169 | 3.2 | 4.8 | 0.00 | 0.00 | 0.00 | 26 | 1004.3 |
| 20260508183715 | 23 | 340 | 9.7 | 14.5 | 0.00 | 0.00 | 0.00 | 23 | 1004.3 |
| 20260508183212 | 22 | 348 | 3.2 | 8.0 | 0.00 | 0.00 | 0.00 | 27 | 1004.4 |
| 20260508182707 | 22 | 279 | 1.6 | 3.2 | 0.00 | 0.00 | 0.00 | 27 | 1004.5 |
| 20260508182204 | 22 | 139 | 1.6 | 4.8 | 0.00 | 0.00 | 0.00 | 26 | 1004.6 |
| 20260508181700 | 21 | 187 | 3.2 | 4.8 | 0.00 | 0.00 | 0.00 | 27 | 1004.7 |
| 20260508181157 | 21 | 166 | 3.2 | 4.8 | 0.00 | 0.00 | 0.00 | 24 | 1005.0 |
| 20260508180654 | 21 | 348 | 3.2 | 8.0 | 0.00 | 0.00 | 0.00 | 26 | 1004.8 |
| 20260508180151 | 21 | 98 | 6.4 | 11.3 | 0.00 | 0.00 | 0.00 | 25 | 1005.0 |
| 20260508175647 | 22 | 329 | 3.2 | 4.8 | 0.00 | 0.00 | 0.00 | 26 | 1005.2 |
| 20260508175144 | 21 | 232 | 3.2 | 4.8 | 0.00 | 0.00 | 0.00 | 27 | 1005.3 |
| 20260508174642 | 21 | 200 | 3.2 | 4.8 | 0.00 | 0.00 | 0.00 | 25 | 1005.4 |
| 20260508174138 | 21 | 153 | 4.8 | 8.0 | 0.00 | 0.00 | 0.00 | 26 | 1005.2 |
| 20260508173635 | 22 | 255 | 3.2 | 4.8 | 0.00 | 0.00 | 0.00 | 24 | 1005.7 |
| 20260508173131 | 21 | 171 | 1.6 | 3.2 | 0.00 | 0.00 | 0.00 | 28 | 1005.6 |
| 20260508172628 | 21 | 271 | 3.2 | 3.2 | 0.00 | 0.00 | 0.00 | 28 | 1005.8 |
| 20260508172124 | 21 | 187 | 1.6 | 3.2 | 0.00 | 0.00 | 0.00 | 29 | 1005.8 |
| 20260508171621 | 20 | 168 | 1.6 | 4.8 | 0.00 | 0.00 | 0.00 | 26 | 1005.9 |
| 20260508171118 | 20 | 175 | 3.2 | 4.8 | 0.00 | 0.00 | 0.00 | 29 | 1006.1 |
| 20260508170615 | 20 | 171 | 3.2 | 8.0 | 0.00 | 0.00 | 0.00 | 28 | 1006.2 |
| 20260508170112 | 20 | 257 | 3.2 | 4.8 | 0.00 | 0.00 | 0.00 | 28 | 1006.2 |
| 20260508165609 | 20 | 275 | 3.2 | 4.8 | 0.00 | 0.00 | 0.00 | 27 | 1006.2 |
| 20260508165106 | 20 | 143 | 3.2 | 4.8 | 0.00 | 0.00 | 0.00 | 29 | 1006.4 |
| 20260508164602 | 20 | 192 | 6.4 | 8.0 | 0.00 | 0.00 | 0.00 | 28 | 1006.4 |
| 20260508164059 | 19 | 183 | 4.8 | 8.0 | 0.00 | 0.00 | 0.00 | 30 | 1006.4 |
| 20260508163557 | 18 | 15 | 3.2 | 4.8 | 0.00 | 0.00 | 0.00 | 30 | 1006.5 |
| 20260508163053 | 18 | 322 | 17.7 | 33.8 | 0.00 | 0.00 | 0.00 | 29 | 1006.7 |
| 20260508162550 | 18 | 183 | 3.2 | 3.2 | 0.00 | 0.00 | 0.00 | 32 | 1006.6 |
| 20260508162048 | 18 | 178 | 1.6 | 3.2 | 0.00 | 0.00 | 0.00 | 32 | 1006.7 |
| 20260508161544 | 17 | 143 | 1.6 | 3.2 | 0.00 | 0.00 | 0.00 | 35 | 1006.8 |
| 20260508161042 | 17 | 172 | 3.2 | 4.8 | 0.00 | 0.00 | 0.00 | 34 | 1006.8 |
| 20260508160540 | 17 | 106 | 4.8 | 8.0 | 0.00 | 0.00 | 0.00 | 33 | 1007.0 |
| 20260508160037 | 16 | 33 | 6.4 | 14.5 | 0.00 | 0.00 | 0.00 | 34 | 1006.9 |
| 20260508155534 | 16 | 130 | 6.4 | 8.0 | 0.00 | 0.00 | 0.00 | 34 | 1007.1 |
| 20260508155031 | 16 | 194 | 6.4 | 8.0 | 0.00 | 0.00 | 0.00 | 35 | 1006.8 |
| 20260508154528 | 16 | 173 | 1.6 | 3.2 | 0.00 | 0.00 | 0.00 | 35 | 1007.1 |
| 20260508154025 | 16 | 184 | 6.4 | 8.0 | 0.00 | 0.00 | 0.00 | 35 | 1007.1 |
| 20260508153522 | 15 | 160 | 3.2 | 3.2 | 0.00 | 0.00 | 0.00 | 37 | 1007.3 |
| 20260508153018 | 15 | 160 | 0.0 | 3.2 | 0.00 | 0.00 | 0.00 | 38 | 1007.3 |
| 20260508152515 | 15 | 163 | 3.2 | 4.8 | 0.00 | 0.00 | 0.00 | 36 | 1007.3 |
| 20260508152010 | 15 | 181 | 6.4 | 14.5 | 0.00 | 0.00 | 0.00 | 36 | 1007.6 |
| 20260508151508 | 15 | 205 | 3.2 | 4.8 | 0.00 | 0.00 | 0.00 | 37 | 1007.3 |
| 20260508151004 | 15 | 219 | 3.2 | 4.8 | 0.00 | 0.00 | 0.00 | 37 | 1007.3 |
| 20260508150501 | 15 | 301 | 8.0 | 14.5 | 0.00 | 0.00 | 0.00 | 37 | 1007.5 |
| 20260508145956 | 15 | 183 | 4.8 | 4.8 | 0.00 | 0.00 | 0.00 | 36 | 1007.5 |
| 20260508145453 | 16 | 209 | 9.7 | 14.5 | 0.00 | 0.00 | 0.00 | 35 | 1007.6 |
| 20260508144950 | 15 | 201 | 3.2 | 3.2 | 0.00 | 0.00 | 0.00 | 37 | 1007.6 |
| 20260508144447 | 15 | 161 | 1.6 | 3.2 | 0.00 | 0.00 | 0.00 | 39 | 1007.4 |
| 20260508143945 | 14 | 160 | 3.2 | 4.8 | 0.00 | 0.00 | 0.00 | 39 | 1007.6 |
| 20260508143442 | 13 | 187 | 1.6 | 3.2 | 0.00 | 0.00 | 0.00 | 42 | 1007.7 |
| 20260508142938 | 13 | 291 | 3.2 | 4.8 | 0.00 | 0.00 | 0.00 | 40 | 1007.6 |
| 20260508142436 | 13 | 198 | 1.6 | 3.2 | 0.00 | 0.00 | 0.00 | 41 | 1007.7 |
| 20260508141932 | 13 | 205 | 0.0 | 3.2 | 0.00 | 0.00 | 0.00 | 41 | 1007.6 |
| 20260508141429 | 13 | 156 | 3.2 | 4.8 | 0.00 | 0.00 | 0.00 | 38 | 1007.7 |
| 20260508140927 | 12 | 176 | 3.2 | 3.2 | 0.00 | 0.00 | 0.00 | 39 | 1007.8 |
| 20260508140423 | 12 | 170 | 0.0 | 3.2 | 0.00 | 0.00 | 0.00 | 42 | 1007.6 |
| 20260508135919 | 12 | 117 | 1.6 | 4.8 | 0.00 | 0.00 | 0.00 | 40 | 1007.8 |
| 20260508135416 | 12 | 169 | 0.0 | 0.0 | 0.00 | 0.00 | 0.00 | 41 | 1008.0 |
| 20260508134912 | 12 | 209 | 3.2 | 11.3 | 0.00 | 0.00 | 0.00 | 40 | 1007.7 |
| 20260508134408 | 12 | 162 | 3.2 | 4.8 | 0.00 | 0.00 | 0.00 | 40 | 1007.8 |
| 20260508133906 | 12 | 153 | 8.0 | 14.5 | 0.00 | 0.00 | 0.00 | 40 | 1008.0 |
| 20260508133403 | 12 | 127 | 3.2 | 4.8 | 0.00 | 0.00 | 0.00 | 40 | 1008.1 |
| 20260508132900 | 12 | 177 | 0.0 | 3.2 | 0.00 | 0.00 | 0.00 | 40 | 1008.0 |
| 20260508132358 | 11 | 181 | 1.6 | 3.2 | 0.00 | 0.00 | 0.00 | 41 | 1008.1 |
| 20260508131854 | 11 | 161 | 0.0 | 0.0 | 0.00 | 0.00 | 0.00 | 42 | 1008.1 |
| 20260508131350 | 10 | 180 | 6.4 | 11.3 | 0.00 | 0.00 | 0.00 | 41 | 1007.9 |
| 20260508130847 | 10 | 191 | 3.2 | 8.0 | 0.00 | 0.00 | 0.00 | 42 | 1007.9 |
| 20260508130343 | 10 | 178 | 3.2 | 4.8 | 0.00 | 0.00 | 0.00 | 43 | 1008.0 |
| 20260508125840 | 10 | 179 | 1.6 | 3.2 | 0.00 | 0.00 | 0.00 | 44 | 1008.1 |
| 20260508125336 | 9 | 191 | 3.2 | 8.0 | 0.00 | 0.00 | 0.00 | 44 | 1008.0 |
| 20260508124834 | 8 | 166 | 0.0 | 0.0 | 0.00 | 0.00 | 0.00 | 45 | 1008.4 |
| 20260508124331 | 8 | 186 | 1.6 | 3.2 | 0.00 | 0.00 | 0.00 | 47 | 1008.1 |
| 20260508123829 | 8 | 208 | 3.2 | 3.2 | 0.00 | 0.00 | 0.00 | 48 | 1008.2 |
| 20260508123327 | 8 | 184 | 1.6 | 3.2 | 0.00 | 0.00 | 0.00 | 47 | 1008.2 |
| 20260508122823 | 8 | 349 | 3.2 | 4.8 | 0.00 | 0.00 | 0.00 | 47 | 1008.1 |
| 20260508122320 | 8 | 169 | 0.0 | 0.0 | 0.00 | 0.00 | 0.00 | 49 | 1008.2 |
| 20260508121818 | 7 | 170 | 0.0 | 0.0 | 0.00 | 0.00 | 0.00 | 49 | 1008.0 |
| 20260508121316 | 7 | 190 | 3.2 | 4.8 | 0.00 | 0.00 | 0.00 | 50 | 1008.0 |
| 20260508120813 | 7 | 176 | 1.6 | 3.2 | 0.00 | 0.00 | 0.00 | 51 | 1007.9 |
| 20260508120311 | 6 | 173 | 0.0 | 0.0 | 0.00 | 0.00 | 0.00 | 53 | 1008.0 |
| 20260508115808 | 6 | 222 | 3.2 | 4.8 | 0.00 | 0.00 | 0.00 | 53 | 1007.9 |
| 20260508115306 | 5 | 173 | 0.0 | 3.2 | 0.00 | 0.00 | 0.00 | 55 | 1008.0 |
| 20260508114802 | 5 | 166 | 0.0 | 0.0 | 0.00 | 0.00 | 0.00 | 57 | 1007.9 |
| 20260508114259 | 5 | 170 | 0.0 | 0.0 | 0.00 | 0.00 | 0.00 | 58 | 1008.0 |
| 20260508113755 | 4 | 164 | 0.0 | 0.0 | 0.00 | 0.00 | 0.00 | 60 | 1008.0 |
| 20260508113254 | 3 | 173 | 0.0 | 0.0 | 0.00 | 0.00 | 0.00 | 62 | 1007.9 |
| 20260508112750 | 3 | 164 | 0.0 | 0.0 | 0.00 | 0.00 | 0.00 | 64 | 1008.0 |
| 20260508112247 | 3 | 164 | 0.0 | 0.0 | 0.00 | 0.00 | 0.00 | 65 | 1008.1 |
| 20260508111743 | 3 | 162 | 0.0 | 0.0 | 0.00 | 0.00 | 0.00 | 66 | 1008.0 |
| 20260508111241 | 2 | 162 | 0.0 | 0.0 | 0.00 | 0.00 | 0.00 | 67 | 1007.9 |
| 20260508110738 | 2 | 164 | 0.0 | 0.0 | 0.00 | 0.00 | 0.00 | 69 | 1007.8 |
| 20260508110235 | 2 | 162 | 0.0 | 0.0 | 0.00 | 0.00 | 0.00 | 70 | 1008.0 |
| 20260508105730 | 2 | 162 | 0.0 | 0.0 | 0.00 | 0.00 | 0.00 | 71 | 1008.0 |
| 20260508105227 | 2 | 166 | 0.0 | 0.0 | 0.00 | 0.00 | 0.00 | 72 | 1007.7 |
| 20260508104724 | 2 | 164 | 0.0 | 0.0 | 0.00 | 0.00 | 0.00 | 72 | 1007.9 |
| 20260508104221 | 2 | 162 | 0.0 | 0.0 | 0.00 | 0.00 | 0.00 | 73 | 1007.8 |
| 20260508103719 | 2 | 165 | 0.0 | 0.0 | 0.00 | 0.00 | 0.00 | 73 | 1007.9 |
| 20260508103215 | 1 | 166 | 0.0 | 0.0 | 0.00 | 0.00 | 0.00 | 73 | 1007.9 |
| 20260508102712 | 1 | 166 | 0.0 | 0.0 | 0.00 | 0.00 | 0.00 | 73 | 1008.0 |
| 20260508102210 | 1 | 166 | 0.0 | 0.0 | 0.00 | 0.00 | 0.00 | 74 | 1007.8 |
| 20260508101707 | 1 | 166 | 0.0 | 0.0 | 0.00 | 0.00 | 0.00 | 74 | 1008.1 |
| 20260508101205 | 1 | 165 | 0.0 | 0.0 | 0.00 | 0.00 | 0.00 | 74 | 1008.0 |
| 20260508100702 | 1 | 165 | 0.0 | 0.0 | 0.00 | 0.00 | 0.00 | 74 | 1008.1 |
| 20260508100200 | 1 | 165 | 0.0 | 0.0 | 0.00 | 0.00 | 0.00 | 74 | 1008.0 |
| 20260508095656 | 1 | 165 | 0.0 | 0.0 | 0.00 | 0.00 | 0.00 | 73 | 1008.0 |
| 20260508095154 | 1 | 165 | 0.0 | 0.0 | 0.00 | 0.00 | 0.00 | 73 | 1008.0 |
| 20260508094650 | 1 | 165 | 0.0 | 0.0 | 0.00 | 0.00 | 0.00 | 72 | 1008.2 |
| 20260508094147 | 1 | 165 | 0.0 | 0.0 | 0.00 | 0.00 | 0.00 | 72 | 1008.2 |
| 20260508093644 | 1 | 167 | 0.0 | 0.0 | 0.00 | 0.00 | 0.00 | 71 | 1008.2 |
| 20260508093141 | 1 | 167 | 0.0 | 0.0 | 0.00 | 0.00 | 0.00 | 71 | 1008.2 |
| 20260508092639 | 2 | 167 | 0.0 | 0.0 | 0.00 | 0.00 | 0.00 | 70 | 1008.2 |
| 20260508092137 | 2 | 167 | 0.0 | 0.0 | 0.00 | 0.00 | 0.00 | 70 | 1008.0 |
| 20260508091634 | 2 | 167 | 0.0 | 0.0 | 0.00 | 0.00 | 0.00 | 69 | 1008.1 |
| 20260508091131 | 2 | 167 | 0.0 | 0.0 | 0.00 | 0.00 | 0.00 | 69 | 1008.3 |
| 20260508090629 | 2 | 167 | 0.0 | 0.0 | 0.00 | 0.00 | 0.00 | 68 | 1008.0 |
| 20260508090126 | 2 | 167 | 0.0 | 0.0 | 0.00 | 0.00 | 0.00 | 67 | 1008.2 |
| 20260508085622 | 2 | 167 | 0.0 | 0.0 | 0.00 | 0.00 | 0.00 | 67 | 1008.2 |
| 20260508085120 | 2 | 167 | 0.0 | 0.0 | 0.00 | 0.00 | 0.00 | 66 | 1008.2 |
| 20260508084616 | 2 | 167 | 0.0 | 0.0 | 0.00 | 0.00 | 0.00 | 66 | 1008.1 |
| 20260508084113 | 2 | 167 | 0.0 | 0.0 | 0.00 | 0.00 | 0.00 | 65 | 1008.2 |
| 20260508083611 | 2 | 167 | 0.0 | 0.0 | 0.00 | 0.00 | 0.00 | 65 | 1008.3 |
| 20260508083108 | 2 | 167 | 0.0 | 0.0 | 0.00 | 0.00 | 0.00 | 65 | 1008.3 |
| 20260508082603 | 2 | 167 | 0.0 | 0.0 | 0.00 | 0.00 | 0.00 | 65 | 1008.1 |
| 20260508082100 | 2 | 167 | 0.0 | 0.0 | 0.00 | 0.00 | 0.00 | 65 | 1008.3 |
| 20260508081558 | 2 | 167 | 0.0 | 0.0 | 0.00 | 0.00 | 0.00 | 66 | 1008.1 |
| 20260508081053 | 2 | 167 | 0.0 | 0.0 | 0.00 | 0.00 | 0.00 | 65 | 1008.3 |
| 20260508080551 | 2 | 167 | 0.0 | 0.0 | 0.00 | 0.00 | 0.00 | 66 | 1008.3 |
| 20260508080049 | 2 | 167 | 0.0 | 0.0 | 0.00 | 0.00 | 0.00 | 68 | 1008.3 |
| 20260508075545 | 2 | 167 | 0.0 | 0.0 | 0.00 | 0.00 | 0.00 | 67 | 1008.5 |
| 20260508075043 | 2 | 168 | 0.0 | 0.0 | 0.00 | 0.00 | 0.00 | 67 | 1008.4 |
| 20260508074540 | 2 | 169 | 0.0 | 0.0 | 0.00 | 0.00 | 0.00 | 68 | 1008.3 |
| 20260508074037 | 2 | 170 | 0.0 | 0.0 | 0.00 | 0.00 | 0.00 | 68 | 1008.5 |
| 20260508073534 | 2 | 170 | 0.0 | 0.0 | 0.00 | 0.00 | 0.00 | 67 | 1008.6 |
| 20260508073032 | 2 | 170 | 0.0 | 0.0 | 0.00 | 0.00 | 0.00 | 68 | 1008.6 |
| 20260508072527 | 2 | 170 | 0.0 | 0.0 | 0.00 | 0.00 | 0.00 | 68 | 1008.7 |
| 20260508072025 | 2 | 170 | 0.0 | 0.0 | 0.00 | 0.00 | 0.00 | 68 | 1008.7 |
| 20260508071523 | 2 | 170 | 0.0 | 0.0 | 0.00 | 0.00 | 0.00 | 68 | 1008.7 |
| 20260508071020 | 2 | 170 | 0.0 | 0.0 | 0.00 | 0.00 | 0.00 | 67 | 1008.6 |
| 20260508070518 | 3 | 170 | 0.0 | 0.0 | 0.00 | 0.00 | 0.00 | 68 | 1008.7 |
| 20260508070016 | 3 | 170 | 0.0 | 0.0 | 0.00 | 0.00 | 0.00 | 68 | 1008.8 |
| 20260508065513 | 3 | 170 | 0.0 | 0.0 | 0.00 | 0.00 | 0.00 | 68 | 1008.7 |
| 20260508065011 | 3 | 170 | 0.0 | 0.0 | 0.00 | 0.00 | 0.00 | 68 | 1008.9 |
| 20260508064509 | 3 | 170 | 0.0 | 0.0 | 0.00 | 0.00 | 0.00 | 68 | 1008.7 |
| 20260508064006 | 3 | 170 | 0.0 | 0.0 | 0.00 | 0.00 | 0.00 | 68 | 1008.8 |
| 20260508063503 | 3 | 170 | 0.0 | 0.0 | 0.00 | 0.00 | 0.00 | 68 | 1008.8 |
| 20260508063001 | 3 | 170 | 0.0 | 0.0 | 0.00 | 0.00 | 0.00 | 68 | 1008.8 |
| 20260508062459 | 3 | 170 | 0.0 | 0.0 | 0.00 | 0.00 | 0.00 | 68 | 1008.9 |
| 20260508061955 | 3 | 170 | 0.0 | 0.0 | 0.00 | 0.00 | 0.00 | 68 | 1009.0 |
| 20260508061453 | 3 | 170 | 0.0 | 0.0 | 0.00 | 0.00 | 0.00 | 67 | 1009.0 |
| 20260508060948 | 3 | 170 | 0.0 | 0.0 | 0.00 | 0.00 | 0.00 | 67 | 1009.4 |
| 20260508060446 | 3 | 170 | 0.0 | 0.0 | 0.00 | 0.00 | 0.00 | 67 | 1009.0 |
| 20260508055943 | 3 | 170 | 0.0 | 0.0 | 0.00 | 0.00 | 0.00 | 67 | 1009.2 |
| 20260508055439 | 3 | 170 | 0.0 | 0.0 | 0.00 | 0.00 | 0.00 | 67 | 1009.2 |
| 20260508054936 | 3 | 170 | 0.0 | 0.0 | 0.00 | 0.00 | 0.00 | 67 | 1009.2 |
| 20260508054433 | 3 | 170 | 0.0 | 0.0 | 0.00 | 0.00 | 0.00 | 67 | 1009.3 |
| 20260508053930 | 3 | 170 | 0.0 | 0.0 | 0.00 | 0.00 | 0.00 | 66 | 1009.0 |
| 20260508053427 | 3 | 170 | 0.0 | 0.0 | 0.00 | 0.00 | 0.00 | 66 | 1008.9 |
| 20260508052925 | 3 | 170 | 0.0 | 0.0 | 0.00 | 0.00 | 0.00 | 65 | 1009.4 |
| 20260508052422 | 4 | 170 | 0.0 | 0.0 | 0.00 | 0.00 | 0.00 | 65 | 1009.2 |
| 20260508051918 | 4 | 170 | 0.0 | 0.0 | 0.00 | 0.00 | 0.00 | 63 | 1009.4 |
| 20260508051414 | 4 | 170 | 0.0 | 0.0 | 0.00 | 0.00 | 0.00 | 64 | 1009.5 |
| 20260508050910 | 4 | 163 | 0.0 | 0.0 | 0.00 | 0.00 | 0.00 | 64 | 1009.6 |
| 20260508050407 | 4 | 166 | 0.0 | 0.0 | 0.00 | 0.00 | 0.00 | 64 | 1009.3 |
| 20260508045903 | 4 | 166 | 0.0 | 0.0 | 0.00 | 0.00 | 0.00 | 63 | 1009.6 |
| 20260508045401 | 4 | 166 | 0.0 | 0.0 | 0.00 | 0.00 | 0.00 | 63 | 1009.4 |
| 20260508044858 | 4 | 166 | 0.0 | 0.0 | 0.00 | 0.00 | 0.00 | 62 | 1009.4 |
| 20260508044355 | 4 | 166 | 0.0 | 0.0 | 0.00 | 0.00 | 0.00 | 63 | 1009.4 |
| 20260508043850 | 4 | 166 | 0.0 | 0.0 | 0.00 | 0.00 | 0.00 | 61 | 1009.6 |
| 20260508043348 | 5 | 166 | 0.0 | 0.0 | 0.00 | 0.00 | 0.00 | 61 | 1009.6 |
| 20260508042844 | 5 | 166 | 0.0 | 0.0 | 0.00 | 0.00 | 0.00 | 59 | 1009.7 |
| 20260508042342 | 5 | 166 | 0.0 | 0.0 | 0.00 | 0.00 | 0.00 | 61 | 1009.7 |
| 20260508041839 | 5 | 166 | 0.0 | 0.0 | 0.00 | 0.00 | 0.00 | 61 | 1009.7 |
| 20260508041335 | 5 | 166 | 0.0 | 0.0 | 0.00 | 0.00 | 0.00 | 60 | 1009.6 |
| 20260508040832 | 5 | 166 | 0.0 | 0.0 | 0.00 | 0.00 | 0.00 | 60 | 1009.5 |
| 20260508040329 | 5 | 166 | 0.0 | 0.0 | 0.00 | 0.00 | 0.00 | 61 | 1009.9 |
| 20260508035826 | 5 | 166 | 0.0 | 0.0 | 0.00 | 0.00 | 0.00 | 60 | 1009.8 |
| 20260508035324 | 5 | 166 | 0.0 | 0.0 | 0.00 | 0.00 | 0.00 | 59 | 1009.7 |
| 20260508034820 | 5 | 166 | 0.0 | 0.0 | 0.00 | 0.00 | 0.00 | 58 | 1009.9 |
| 20260508034318 | 5 | 166 | 0.0 | 0.0 | 0.00 | 0.00 | 0.00 | 58 | 1009.9 |
| 20260508033814 | 5 | 166 | 0.0 | 0.0 | 0.00 | 0.00 | 0.00 | 57 | 1010.0 |
| 20260508033313 | 5 | 166 | 0.0 | 0.0 | 0.00 | 0.00 | 0.00 | 57 | 1010.1 |
| 20260508032810 | 6 | 166 | 0.0 | 0.0 | 0.00 | 0.00 | 0.00 | 57 | 1009.9 |
| 20260508032307 | 6 | 166 | 0.0 | 0.0 | 0.00 | 0.00 | 0.00 | 56 | 1010.0 |
| 20260508031804 | 6 | 166 | 0.0 | 0.0 | 0.00 | 0.00 | 0.00 | 55 | 1010.0 |
| 20260508031300 | 6 | 166 | 0.0 | 0.0 | 0.00 | 0.00 | 0.00 | 54 | 1010.0 |
| 20260508030756 | 6 | 166 | 0.0 | 0.0 | 0.00 | 0.00 | 0.00 | 54 | 1010.0 |
| 20260508030254 | 6 | 166 | 0.0 | 0.0 | 0.00 | 0.00 | 0.00 | 53 | 1010.1 |
| 20260508025751 | 6 | 166 | 0.0 | 0.0 | 0.00 | 0.00 | 0.00 | 53 | 1009.9 |
| 20260508025248 | 6 | 166 | 0.0 | 0.0 | 0.00 | 0.00 | 0.00 | 52 | 1009.8 |
| 20260508024744 | 6 | 166 | 0.0 | 0.0 | 0.00 | 0.00 | 0.00 | 51 | 1009.8 |
| 20260508024241 | 7 | 166 | 0.0 | 0.0 | 0.00 | 0.00 | 0.00 | 51 | 1010.0 |
| 20260508023738 | 7 | 166 | 0.0 | 0.0 | 0.00 | 0.00 | 0.00 | 50 | 1010.0 |
| 20260508023235 | 7 | 166 | 0.0 | 0.0 | 0.00 | 0.00 | 0.00 | 50 | 1009.8 |
| 20260508022731 | 7 | 166 | 0.0 | 0.0 | 0.00 | 0.00 | 0.00 | 49 | 1009.9 |
| 20260508022227 | 7 | 166 | 0.0 | 0.0 | 0.00 | 0.00 | 0.00 | 48 | 1010.0 |
| 20260508021724 | 7 | 166 | 0.0 | 0.0 | 0.00 | 0.00 | 0.00 | 47 | 1009.8 |
| 20260508021219 | 8 | 166 | 0.0 | 0.0 | 0.00 | 0.00 | 0.00 | 46 | 1009.9 |
| 20260508020717 | 8 | 166 | 0.0 | 0.0 | 0.00 | 0.00 | 0.00 | 47 | 1009.9 |
| 20260508020214 | 8 | 166 | 0.0 | 0.0 | 0.00 | 0.00 | 0.00 | 44 | 1009.8 |
| 20260508015711 | 8 | 166 | 0.0 | 0.0 | 0.00 | 0.00 | 0.00 | 43 | 1009.6 |
| 20260508015208 | 9 | 166 | 0.0 | 0.0 | 0.00 | 0.00 | 0.00 | 42 | 1009.5 |
| 20260508014705 | 10 | 166 | 0.0 | 0.0 | 0.00 | 0.00 | 0.00 | 41 | 1009.6 |
| 20260508014201 | 10 | 166 | 0.0 | 0.0 | 0.00 | 0.00 | 0.00 | 40 | 1009.6 |
| 20260508013658 | 10 | 165 | 0.0 | 0.0 | 0.00 | 0.00 | 0.00 | 38 | 1009.5 |